Location: Newark
(45.9456°N, 15.4064°E)
Time: 22:29:48
(UTC+00:00)

Transit 2A Rocket - Pass Details

Date: 27 January 2020
Orbit: 592 x 911 km, 66.7° (Epoch: 19 February)

Event Time Altitude Azimuth Distance (km) Brightness Sun altitude
Exits shadow 02:51:38 14° 75° (ENE) 1,691 7.5 -37.3°
Drops below altitude 10° 02:52:34 10° 64° (ENE) 1,934 7.8 -37.1°
Sets 02:55:21 0° 47° (NE) 2,861 8.7 -36.7°
